Weather in Langkawi

Malaysia     6°21′03″N   99°45′45″E
temp.,
°C
wind,
m/s
gust,
m/s
humid.,
%
clouds,
%
prec.,
mm/h
press.,
hPa
HPBL,
m
14 june, mon
mon1423:00+29n1168100 0.0 1010479
02:00+29n226892 0.0 1010539
05:00+28wnw0070100 1.8 1009221
08:00+29sw1167100 2.6 1010432
11:00+29ene226674 0.0 1010604
14:00+29s126567 0.0 1009798
17:00+29ssw226579 0.1 1007770
20:00+29wsw11655 0.1 1008525
15 june, tue
tue1523:00+29w11655 0.0 1010474
02:00+29wnw33675 0.0 1009615
05:00+29wnw226773 0.0 1008601
08:00+28w1170100 1.8 101057
11:00+28w1166100 1.4 1011353
14:00+29nw2264100 1.5 1009507
17:00+29nw236799 0.1 1008796
20:00+29nw336699 0.1 1009736
16 june, wed
wed1623:00+29wnw226598 0.0 1010604
02:00+29wnw2266100 0.0 1009649
05:00+29w2265100 0.0 1008875
08:00+29nw106588 0.0 1010722
11:00+29ese1166100 0.1 1011674
14:00+29s1165100 0.1 1010864
17:00+29ssw2266100 0.0 1009984
20:00+29sw116799 0.0 1010790
17 june, thu
thu1723:00+29s116986 0.0 1012722
02:00+29sw117339 0.0 1011676
05:00+28wnw117290 0.0 1010709
08:00+28ese107118 0.0 1011697
11:00+28ese217250 0.0 1012758
14:00+29sse1172100 0.0 1010744
17:00+29w1168100 0.0 1009774
20:00+29w3368100 0.0 1010613
18 june, fri
fri1823:00+29wnw2268100 0.0 1012606
02:00+29nw226799 0.0 1011607
05:00+29wsw1167100 0.0 1010638
08:00+29sw116798 0.0 1011710
11:00+29ssw116767 0.0 1012833
14:00+29sw226645 0.0 1010890
17:00+29w23653 0.0 1008940
20:00+29wnw336791 0.0 1009880